When you browse on this site, cookies collect data to enhance your experience and personalize the content and advertising you see.
Visit our Privacy Policy to learn more. By continuing to use the site, you agree to this use of cookies and data.
  • In Lithuania
  • List of Countries
  • For 7 days
  • Water Temperature
  • Satellite Maps
  • Weather Map
  • Weather Widgets
  • user-avatar
    Login

    Hourly Weather Chichester

    Today, 19 June, Wednesday

    Time Temperature Precipitation Wind Pressure Humidity
    00:00 +13°C° 0.1 mm 3 mps 754 mmHg 94%
    01:00 +13°C° 0.1 mm 3 mps 754 mmHg 94%
    02:00 +13°C° 0.1 mm 3 mps 753 mmHg 95%
    03:00 +13°C° 0.1 mm 4 mps 753 mmHg 95%
    04:00 +13°C° 0.3 mm 4 mps 753 mmHg 95%
    05:00 +14°C° 0.3 mm 4 mps 753 mmHg 94%
    06:00 +14°C° 0.3 mm 4 mps 753 mmHg 94%
    07:00 +15°C° 0 mm 4 mps 753 mmHg 93%
    08:00 +17°C° 0 mm 3 mps 753 mmHg 92%
    09:00 +17°C° 0 mm 3 mps 753 mmHg 91%
    10:00 +17°C° 0 mm 3 mps 754 mmHg 91%
    11:00 +17°C° 0 mm 3 mps 754 mmHg 90%
    12:00 +17°C° 0 mm 3 mps 754 mmHg 90%
    13:00 +18°C° 0.3 mm 4 mps 754 mmHg 88%
    14:00 +17°C° 0.3 mm 5 mps 754 mmHg 87%
    15:00 +19°C° 0.3 mm 5 mps 754 mmHg 85%
    16:00 +19°C° 0.3 mm 5 mps 754 mmHg 86%
    17:00 +17°C° 0.3 mm 5 mps 754 mmHg 87%
    18:00 +17°C° 0.3 mm 5 mps 755 mmHg 88%
    19:00 +15°C° 0 mm 5 mps 755 mmHg 88%
    20:00 +14°C° 0 mm 5 mps 755 mmHg 89%
    21:00 +13°C° 0 mm 5 mps 756 mmHg 89%
    22:00 +12°C° 0 mm 5 mps 756 mmHg 89%
    23:00 +10°C° 0 mm 5 mps 756 mmHg 88%

    Tomorrow, 20 June, Thursday

    Time Temperature Precipitation Wind Pressure Humidity
    00:00 +10°C° 0 mm 4 mps 756 mmHg 88%
    01:00 +8°C° 0 mm 4 mps 756 mmHg 89%
    02:00 +8°C° 0 mm 4 mps 757 mmHg 91%
    03:00 +8°C° 0 mm 4 mps 757 mmHg 92%
    04:00 +10°C° 0 mm 4 mps 757 mmHg 92%
    05:00 +10°C° 0 mm 4 mps 757 mmHg 91%
    06:00 +11°C° 0 mm 4 mps 757 mmHg 90%
    07:00 +12°C° 0 mm 5 mps 758 mmHg 86%
    08:00 +14°C° 0 mm 5 mps 758 mmHg 82%
    09:00 +15°C° 0 mm 5 mps 758 mmHg 78%
    10:00 +15°C° 0.1 mm 6 mps 758 mmHg 77%
    11:00 +16°C° 0.1 mm 6 mps 758 mmHg 75%
    12:00 +16°C° 0.1 mm 7 mps 759 mmHg 74%
    13:00 +16°C° 0.1 mm 7 mps 759 mmHg 76%
    14:00 +16°C° 0.1 mm 7 mps 759 mmHg 78%
    15:00 +15°C° 0.1 mm 7 mps 759 mmHg 80%
    16:00 +15°C° 0.1 mm 7 mps 759 mmHg 81%
    17:00 +15°C° 0.1 mm 6 mps 759 mmHg 81%
    18:00 +15°C° 0.1 mm 6 mps 759 mmHg 82%
    19:00 +14°C° 0 mm 5 mps 760 mmHg 84%
    20:00 +13°C° 0 mm 4 mps 760 mmHg 87%
    21:00 +12°C° 0 mm 4 mps 760 mmHg 89%
    22:00 +11°C° 0 mm 4 mps 761 mmHg 88%
    23:00 +10°C° 0 mm 3 mps 761 mmHg 88%

    Day after tomorrow, 21 June, Friday

    Time Temperature Precipitation Wind Pressure Humidity
    00:00 +10°C° 0 mm 3 mps 761 mmHg 88%
    01:00 +9°C° 0 mm 3 mps 761 mmHg 88%
    02:00 +9°C° 0 mm 3 mps 761 mmHg 89%
    03:00 +8°C° 0 mm 3 mps 761 mmHg 90%
    04:00 +9°C° 0 mm 3 mps 761 mmHg 89%
    05:00 +10°C° 0 mm 3 mps 762 mmHg 87%
    06:00 +10°C° 0 mm 3 mps 762 mmHg 86%
    07:00 +12°C° 0 mm 3 mps 762 mmHg 81%
    08:00 +13°C° 0 mm 3 mps 762 mmHg 76%
    09:00 +14°C° 0 mm 3 mps 763 mmHg 71%
    10:00 +16°C° 0 mm 3 mps 763 mmHg 70%
    11:00 +16°C° 0 mm 3 mps 763 mmHg 68%
    12:00 +16°C° 0 mm 3 mps 763 mmHg 66%
    13:00 +17°C° 0 mm 4 mps 763 mmHg 67%
    14:00 +17°C° 0 mm 4 mps 763 mmHg 68%
    15:00 +17°C° 0 mm 4 mps 763 mmHg 68%
    16:00 +17°C° 0 mm 4 mps 763 mmHg 70%
    17:00 +17°C° 0 mm 4 mps 763 mmHg 72%
    18:00 +17°C° 0 mm 4 mps 764 mmHg 74%
    19:00 +14°C° 0 mm 3 mps 764 mmHg 77%
    20:00 +13°C° 0 mm 3 mps 764 mmHg 81%
    21:00 +12°C° 0 mm 2 mps 764 mmHg 84%
    22:00 +12°C° 0 mm 2 mps 764 mmHg 83%
    23:00 +10°C° 0 mm 2 mps 764 mmHg 83%

    22 June, Saturday

    Time Temperature Precipitation Wind Pressure Humidity
    00:00 +11°C° 0 mm 1 mps 764 mmHg 82%
    01:00 +9°C° 0 mm 2 mps 764 mmHg 83%
    02:00 +10°C° 0 mm 1 mps 764 mmHg 83%
    03:00 +10°C° 0 mm 1 mps 764 mmHg 84%
    04:00 +11°C° 0 mm 1 mps 764 mmHg 82%
    05:00 +12°C° 0 mm 1 mps 764 mmHg 81%
    06:00 +11°C° 0 mm 0 mps 764 mmHg 79%
    07:00 +14°C° 0 mm 1 mps 764 mmHg 75%
    08:00 +15°C° 0 mm 1 mps 764 mmHg 72%
    09:00 +16°C° 0 mm 1 mps 764 mmHg 68%
    10:00 +18°C° 0 mm 1 mps 764 mmHg 66%
    11:00 +18°C° 0 mm 1 mps 764 mmHg 65%
    12:00 +18°C° 0 mm 2 mps 764 mmHg 64%
    13:00 +18°C° 0 mm 2 mps 764 mmHg 64%
    14:00 +18°C° 0 mm 2 mps 764 mmHg 63%
    15:00 +19°C° 0 mm 1 mps 763 mmHg 63%
    16:00 +19°C° 0 mm 1 mps 763 mmHg 65%
    17:00 +19°C° 0 mm 1 mps 763 mmHg 68%
    18:00 +18°C° 0 mm 1 mps 763 mmHg 70%
    19:00 +16°C° 0 mm 2 mps 763 mmHg 74%
    20:00 +15°C° 0 mm 2 mps 763 mmHg 77%
    21:00 +13°C° 0 mm 2 mps 764 mmHg 81%
    22:00 +13°C° 0 mm 2 mps 764 mmHg 83%
    23:00 +11°C° 0 mm 3 mps 763 mmHg 85%

    23 June, Sunday

    Time Temperature Precipitation Wind Pressure Humidity
    00:00 +11°C° 0 mm 3 mps 763 mmHg 87%
    01:00 +11°C° 0 mm 4 mps 763 mmHg 87%
    02:00 +11°C° 0 mm 4 mps 763 mmHg 88%
    03:00 +11°C° 0 mm 4 mps 763 mmHg 89%
    04:00 +11°C° 0 mm 4 mps 763 mmHg 87%
    05:00 +12°C° 0 mm 5 mps 763 mmHg 85%
    06:00 +13°C° 0 mm 5 mps 763 mmHg 83%
    07:00 +14°C° 0 mm 6 mps 763 mmHg 80%
    08:00 +15°C° 0 mm 6 mps 763 mmHg 78%
    09:00 +17°C° 0 mm 6 mps 763 mmHg 76%
    10:00 +17°C° 0 mm 7 mps 762 mmHg 74%
    11:00 +18°C° 0 mm 7 mps 762 mmHg 73%
    12:00 +20°C° 0 mm 7 mps 762 mmHg 71%
    13:00 +20°C° 0 mm 7 mps 762 mmHg 72%
    14:00 +20°C° 0 mm 6 mps 762 mmHg 73%
    15:00 +20°C° 0 mm 6 mps 761 mmHg 74%
    16:00 +18°C° 0 mm 7 mps 761 mmHg 77%
    17:00 +18°C° 0 mm 7 mps 761 mmHg 79%
    18:00 +18°C° 0 mm 8 mps 760 mmHg 81%
    19:00 +17°C° 0 mm 8 mps 760 mmHg 79%
    20:00 +17°C° 0 mm 8 mps 761 mmHg 77%
    21:00 +16°C° 0 mm 8 mps 761 mmHg 75%
    22:00 +16°C° 0 mm 8 mps 760 mmHg 76%
    23:00 +17°C° 0 mm 8 mps 760 mmHg 76%

    24 June, Monday

    Time Temperature Precipitation Wind Pressure Humidity
    00:00 +17°C° 0 mm 8 mps 760 mmHg 77%
    01:00 +17°C° 0 mm 8 mps 759 mmHg 78%
    02:00 +17°C° 0 mm 9 mps 759 mmHg 79%
    03:00 +17°C° 0 mm 9 mps 759 mmHg 80%
    04:00 +17°C° 0 mm 9 mps 759 mmHg 82%
    05:00 +17°C° 0 mm 8 mps 759 mmHg 85%
    06:00 +17°C° 0 mm 8 mps 759 mmHg 87%
    07:00 +17°C° 0 mm 8 mps 759 mmHg 86%
    08:00 +18°C° 0 mm 8 mps 759 mmHg 85%
    09:00 +18°C° 0 mm 8 mps 759 mmHg 84%
    10:00 +18°C° 0 mm 8 mps 759 mmHg 84%
    11:00 +20°C° 0 mm 7 mps 759 mmHg 83%
    12:00 +20°C° 0 mm 7 mps 759 mmHg 83%
    13:00 +21°C° 0 mm 6 mps 759 mmHg 84%
    14:00 +21°C° 0 mm 5 mps 759 mmHg 84%
    15:00 +21°C° 0 mm 5 mps 759 mmHg 85%
    16:00 +22°C° 0 mm 4 mps 759 mmHg 86%
    17:00 +22°C° 0 mm 3 mps 759 mmHg 86%
    18:00 +24°C° 0 mm 2 mps 759 mmHg 86%
    19:00 +23°C° 0 mm 2 mps 759 mmHg 89%
    20:00 +22°C° 0 mm 1 mps 760 mmHg 91%
    21:00 +21°C° 0 mm 1 mps 760 mmHg 93%
    22:00 +20°C° 0 mm 1 mps 760 mmHg 94%
    23:00 +19°C° 0 mm 2 mps 760 mmHg 94%
    Show more